CAPE
nan nan nan nan nan nan nan nan nan nan nan nan nan nan nan nan nan nan nan nan nan nan nan nan nan nan nan nan nan nan nan nan nan nan 0 0 nan nan nan nan nan nan nan nan nan nan nan nan nan 0 0 nan 1 1 3 3 3 8 15 15 15 27 40 40 40 35 23 11 4 4 0 nan nan nan nan nan nan nan nan nan nan nan nan nan nan nan
nan nan nan nan nan nan nan nan nan nan nan nan nan nan nan nan nan nan nan nan nan nan nan nan nan nan nan nan nan nan 1 0 0 0 1 1 0 0 0 nan nan nan nan nan nan nan 1 3 3 5 6 10 7 7 10 11 11 13 17 12 12 24 23 23 23 24 14 7 1 1 nan nan nan nan nan nan nan nan nan nan nan nan nan nan nan nan
nan nan nan nan nan nan nan nan nan nan nan nan nan nan nan nan nan nan nan nan nan nan nan nan nan nan nan nan 1 1 2 2 1 1 3 2 1 1 0 0 0 0 nan nan nan 0 3 5 5 6 4 5 2 2 2 1 1 1 nan nan nan nan 1 3 3 4 3 nan nan nan nan nan nan nan nan nan nan nan nan nan nan nan nan nan nan nan
nan nan nan nan nan nan nan nan nan nan nan nan nan nan nan nan nan nan nan nan nan nan nan nan nan nan nan nan 1 1 3 4 3 3 4 3 2 2 1 1 1 0 0 1 1 2 5 6 6 3 1 nan nan nan nan nan nan nan nan nan nan nan nan nan nan nan nan nan nan nan nan nan nan nan nan nan nan nan nan nan nan nan nan nan nan nan
nan nan nan nan nan nan nan nan nan nan nan nan nan nan nan nan nan nan nan nan nan nan nan nan nan nan nan nan 1 1 3 4 4 4 5 5 4 4 2 1 1 1 1 3 3 6 8 5 5 1 nan nan nan nan nan nan nan nan nan nan nan nan nan nan nan nan nan nan nan nan nan nan nan nan nan nan nan nan nan nan nan nan nan nan nan nan
nan nan nan nan nan nan nan nan nan nan nan nan nan nan nan nan nan nan nan nan nan nan nan nan nan nan nan nan 1 1 3 6 5 5 6 7 5 5 3 3 3 2 3 4 4 9 9 5 5 1 nan nan nan nan nan nan nan nan nan nan nan nan nan nan nan nan nan nan nan nan nan nan nan nan nan nan nan nan nan nan nan nan nan nan nan nan
nan nan nan nan nan nan nan nan nan nan nan nan nan nan nan nan nan nan nan nan nan nan nan nan nan nan nan nan 1 1 5 6 6 6 6 7 6 6 4 4 4 3 4 7 7 11 9 6 6 2 nan nan nan nan nan nan nan nan nan nan nan nan nan nan nan nan nan nan nan nan nan nan nan nan nan nan nan nan nan nan nan nan nan nan nan nan
nan nan nan nan nan nan nan nan nan nan nan nan nan nan nan nan nan nan nan nan nan nan nan nan nan nan nan nan nan nan nan nan 0 0 2 7 7 7 7 6 6 5 7 11 11 11 9 6 6 3 1 nan nan nan nan nan nan nan nan nan nan nan nan nan nan nan nan nan nan nan nan nan nan nan nan nan nan nan nan nan nan nan nan nan nan nan
nan nan nan nan nan nan nan nan nan nan nan nan nan nan nan nan nan nan nan nan nan nan nan nan nan nan nan nan nan nan nan nan nan nan nan nan nan nan 6 8 8 6 9 12 12 11 9 6 6 3 0 nan nan nan nan nan nan nan nan nan nan nan nan nan nan nan nan nan nan nan nan nan nan nan nan nan nan nan nan nan nan nan nan nan nan nan
nan nan nan nan nan nan nan nan nan nan nan nan nan nan nan nan nan nan nan nan nan nan nan nan nan nan nan nan nan nan nan nan 6 6 8 nan 5 5 3 3 3 4 11 13 13 12 9 5 5 2 nan nan nan nan nan nan nan nan nan nan nan nan nan nan nan nan nan nan nan nan nan nan nan nan nan nan nan nan nan nan nan nan nan nan nan nan
nan nan nan nan nan nan nan nan nan nan nan nan nan nan nan nan nan nan nan nan nan nan nan nan nan nan nan nan nan nan nan nan nan nan nan 0 3 3 5 3 3 5 12 13 13 9 6 3 3 1 nan nan nan nan nan nan nan nan nan nan nan nan nan nan nan nan nan nan nan nan nan nan nan nan nan nan nan nan nan nan nan nan nan nan nan nan
nan nan nan nan nan nan nan nan nan nan nan nan nan nan nan nan nan nan nan nan nan nan nan nan nan nan nan nan nan nan nan nan nan nan nan nan nan nan nan nan nan 4 7 15 15 7 5 2 2 nan nan nan nan nan nan nan nan nan nan nan nan nan nan nan nan nan nan nan nan nan nan nan nan nan nan nan nan nan nan nan nan nan nan nan nan nan
nan nan nan nan nan nan nan nan nan nan nan nan nan nan nan nan nan nan nan nan nan nan nan nan nan nan nan nan nan nan nan nan nan nan nan nan nan nan nan nan nan nan nan nan nan nan 2 1 1 nan nan nan nan nan nan nan nan nan nan nan nan nan nan nan nan nan nan nan nan nan nan nan nan nan nan nan nan nan nan nan nan nan nan nan nan nan
nan nan nan nan nan nan nan nan nan nan nan nan nan nan nan nan nan nan nan nan nan nan nan nan nan nan nan nan nan nan nan nan nan nan nan nan nan nan nan nan nan nan nan nan nan nan nan nan nan nan nan nan nan nan nan nan nan nan nan nan nan nan nan nan nan nan nan nan nan nan nan nan nan nan nan nan nan nan nan nan nan nan nan nan nan nan
nan nan nan nan nan nan nan nan nan nan nan nan nan nan nan nan nan nan nan nan nan nan nan nan nan nan nan nan nan nan nan nan nan nan nan nan nan nan nan nan nan nan nan nan nan nan nan nan nan nan nan nan nan nan nan nan nan nan nan nan nan nan nan nan nan nan nan nan nan nan nan nan nan nan nan nan nan nan nan nan nan nan nan nan nan nan
nan nan nan nan nan nan nan nan nan nan nan nan nan nan nan nan nan nan nan nan nan nan nan nan nan nan nan nan nan nan nan nan nan nan nan nan nan nan nan nan nan nan nan nan nan nan nan nan nan nan nan nan nan nan nan nan nan nan nan nan nan nan nan nan nan nan nan nan nan nan nan nan nan nan nan nan nan nan nan nan nan nan nan nan nan nan
nan nan nan nan nan nan nan nan nan nan nan nan nan nan nan nan nan nan nan nan nan nan nan nan nan nan nan nan nan nan nan nan nan nan nan nan nan nan nan nan nan nan nan nan nan nan nan nan nan nan nan nan nan nan nan nan nan nan nan nan nan nan nan nan nan nan nan nan nan nan nan nan nan nan nan nan nan nan nan nan nan nan nan nan nan nan
nan nan nan nan nan nan nan nan nan nan nan nan nan nan nan nan nan nan nan nan nan nan nan nan nan nan nan nan nan nan nan nan nan nan nan nan nan nan nan nan nan nan nan nan nan nan nan nan nan nan nan nan nan nan nan nan nan nan nan nan nan nan nan nan nan nan nan nan 0 0 0 nan nan nan nan 0 1 1 0 0 0 0 nan nan nan nan
nan nan nan nan nan nan nan nan nan nan nan nan nan nan nan nan nan nan nan nan nan nan nan nan nan nan nan nan nan nan nan nan nan nan nan nan nan nan nan nan nan nan nan nan nan nan nan nan nan nan nan nan nan nan nan nan nan nan nan nan nan nan nan nan nan nan nan 1 1 1 1 0 0 0 0 1 2 2 2 1 1 0 nan nan nan nan
nan nan nan nan nan nan nan nan nan nan nan nan nan nan nan nan nan nan nan nan nan nan nan nan nan nan nan nan nan nan nan nan nan nan nan nan nan nan nan nan nan nan nan nan nan nan nan nan nan nan nan nan nan nan nan nan nan nan nan nan nan nan nan nan nan nan 1 2 2 2 1 1 1 1 1 2 3 3 3 2 2 1 1 0 0 nan
nan nan nan nan nan nan nan nan nan nan nan nan nan nan nan nan nan nan nan nan nan nan nan nan nan nan nan nan nan nan nan nan nan nan nan nan nan nan nan nan nan nan nan nan nan nan nan nan nan nan nan nan nan nan nan nan nan nan nan nan nan nan nan nan nan nan 2 3 3 3 2 2 2 2 2 3 3 3 3 3 3 2 1 0 0 nan
nan nan nan nan nan nan nan nan nan nan nan nan nan nan nan nan nan nan nan nan nan nan nan nan nan nan nan nan nan nan nan nan nan nan nan nan nan nan nan nan nan nan nan nan nan nan nan nan nan nan nan nan nan nan nan nan nan nan nan nan nan nan nan nan nan 1 2 4 4 4 3 3 3 3 3 3 3 3 3 3 3 2 1 0 0 nan
nan nan nan nan nan nan nan nan nan nan nan nan nan nan nan nan nan nan nan nan nan nan nan nan nan nan nan nan nan nan nan nan nan nan nan nan nan nan nan nan nan nan nan nan nan nan nan nan nan nan nan nan nan nan nan nan nan nan nan nan nan nan nan 0 0 1 3 5 4 4 3 3 3 3 4 4 3 3 3 3 3 2 2 0 0 nan
nan nan nan nan nan nan nan nan nan nan nan nan nan nan nan nan nan nan nan nan nan nan nan nan nan nan nan nan nan nan nan nan nan nan nan nan nan nan nan nan nan nan nan nan nan nan nan nan nan nan nan nan nan nan nan nan nan nan nan nan nan nan nan 0 0 2 4 5 5 5 3 3 3 3 4 3 3 3 3 3 3 2 2 1 1 0
nan nan nan nan nan nan nan nan nan nan nan nan nan nan nan nan nan nan nan nan nan nan nan nan nan nan nan nan nan nan nan nan nan nan nan nan nan nan nan nan nan nan nan nan nan nan nan nan nan nan nan nan nan nan nan nan nan nan nan nan nan nan 0 1 1 3 5 6 5 5 4 3 4 4 4 4 4 4 4 3 3 2 2 1 1 0
nan nan nan nan nan nan nan nan nan nan nan nan nan nan nan nan nan nan nan nan nan nan nan nan nan nan nan nan nan nan nan nan nan nan nan nan nan nan nan nan nan nan nan nan nan nan nan nan nan nan nan nan nan nan nan nan nan nan nan nan nan nan 0 1 1 3 6 7 6 6 5 4 5 5 6 6 5 5 4 3 3 2 2 1 1 0
nan nan nan nan nan nan nan nan nan nan nan nan nan nan nan nan nan nan nan nan nan nan nan nan nan nan nan nan nan nan nan nan nan nan nan nan nan nan nan nan nan nan nan nan nan nan nan nan nan nan nan nan nan nan nan nan nan nan nan nan nan nan 0 1 1 3 6 8 7 7 6 6 6 6 7 8 7 7 7 6 6 4 4 2 2 1
nan nan nan nan nan nan nan nan nan nan nan nan nan nan nan nan nan nan nan nan nan nan nan nan nan nan nan nan nan nan nan nan nan nan nan nan nan nan nan nan nan nan nan nan nan nan nan nan nan nan nan nan nan nan nan nan nan nan nan nan nan nan 0 1 1 4 8 8 9 9 7 7 8 8 8 7 7 7 8 9 9 8 6 3 3 nan
nan nan nan nan nan nan nan 1 1 1 1 1 1 1 nan nan nan nan nan nan nan nan nan nan nan nan nan nan nan nan nan nan nan nan nan nan nan nan nan nan nan nan nan nan nan nan nan nan nan nan nan nan nan nan nan nan nan nan nan nan nan nan nan 1 1 4 9 11 9 9 8 7 6 6 6 6 6 6 7 10 10 10 6 0 0 nan
nan nan nan nan nan nan nan nan 3 3 4 2 2 2 nan nan nan nan nan nan nan nan nan nan nan nan nan nan nan nan nan nan nan nan nan nan nan nan nan nan nan nan nan nan nan nan nan nan nan nan nan nan nan nan nan nan nan nan nan nan nan nan nan 0 0 5 11 12 9 9 7 5 4 4 4 3 4 4 6 8 8 7 2 nan nan nan
nan nan nan nan nan nan nan nan 0 0 8 6 3 3 nan nan nan nan nan nan nan nan nan nan nan nan nan nan nan nan nan nan nan nan nan nan nan nan nan nan nan nan nan nan nan nan nan nan nan nan nan nan nan nan nan nan nan nan nan nan nan nan nan 1 1 7 12 11 8 8 4 2 1 1 1 2 3 3 5 8 8 6 nan nan nan nan
nan nan nan nan nan nan nan nan nan nan nan nan nan nan nan nan nan nan nan nan nan nan nan nan nan nan nan nan nan nan nan nan nan nan nan nan nan nan nan nan nan nan nan nan nan nan nan nan nan nan nan nan nan nan nan nan nan nan nan nan nan nan nan 8 8 7 4 6 3 3 0 nan nan nan nan nan nan nan 1 4 4 5 nan nan nan nan
nan nan nan nan nan nan nan nan nan nan nan nan nan nan nan nan nan nan nan nan nan nan nan nan nan nan nan nan nan nan nan nan nan nan nan nan nan nan nan nan nan nan nan nan nan nan nan nan nan nan nan nan nan nan nan nan nan nan nan nan nan nan nan nan nan nan nan nan nan nan nan nan nan nan nan nan nan nan nan 1 1 4 3 nan nan nan
nan nan nan nan nan nan nan nan nan nan nan nan nan nan nan nan nan nan nan nan nan nan nan nan nan nan nan nan nan nan nan nan nan nan nan nan nan nan nan nan nan nan nan nan nan nan nan nan nan nan nan nan nan nan nan nan nan nan nan nan nan nan nan nan nan nan nan nan nan nan nan nan nan nan nan nan nan nan nan nan nan 1 4 0 0 nan
nan nan nan nan nan nan nan nan nan nan nan nan nan nan nan nan nan nan nan nan nan nan nan nan nan nan nan nan nan nan nan nan nan nan nan nan nan nan nan nan nan nan nan nan nan nan nan nan nan nan nan nan nan nan nan nan nan nan nan nan nan nan nan nan nan nan nan nan nan nan nan nan nan nan nan nan nan nan nan nan nan nan 1 5 5 2
nan nan nan nan nan nan nan nan nan nan nan nan nan nan nan nan nan nan nan nan nan nan nan nan nan nan nan nan nan nan nan nan nan nan nan nan nan nan nan nan nan nan nan nan nan nan nan nan nan nan nan nan nan nan nan nan nan nan nan nan nan nan nan nan nan nan nan nan nan nan nan nan nan nan nan nan nan nan nan nan nan nan nan 2 2 4
nan nan nan nan nan nan nan nan nan nan nan nan nan nan nan nan nan nan nan nan nan nan nan nan nan nan nan nan nan nan nan nan nan nan nan nan nan nan nan nan nan nan nan nan nan nan nan nan nan nan nan nan nan nan nan nan nan nan nan nan nan nan nan nan nan nan nan nan nan nan nan nan nan nan nan nan nan nan nan nan nan nan nan 0 0 3
nan nan nan nan nan nan nan nan nan nan nan nan nan nan nan nan nan nan nan nan nan nan nan nan nan nan nan nan nan nan nan nan nan nan nan nan nan nan nan nan nan nan nan nan nan nan nan nan nan nan nan nan nan nan nan nan nan nan nan nan nan nan nan nan nan nan nan nan nan nan nan nan nan nan nan nan nan nan nan nan nan nan nan nan nan 1
nan nan nan nan nan nan nan nan nan nan nan nan nan nan nan nan nan nan nan nan nan nan nan nan nan nan nan nan nan nan nan nan nan nan nan nan nan nan nan nan nan nan nan nan nan nan nan nan nan nan nan nan nan nan nan nan nan nan nan nan nan nan nan nan nan nan nan nan nan nan nan nan nan nan nan nan nan nan nan nan nan nan nan nan nan nan
nan nan nan nan nan nan nan nan nan nan nan nan nan nan nan nan nan nan nan nan nan nan nan nan nan nan nan nan nan nan nan nan nan nan nan nan nan nan nan nan nan nan nan nan nan nan nan nan nan nan nan nan nan nan nan nan nan nan nan nan nan nan nan nan nan nan nan nan nan nan nan nan nan nan nan nan nan nan nan nan nan nan nan nan nan nan
nan nan nan nan nan nan nan nan nan nan nan nan nan nan nan nan nan nan nan nan nan nan nan nan nan nan nan nan nan nan nan nan nan nan nan nan nan nan nan nan nan nan nan nan nan nan nan nan nan nan nan nan nan nan nan nan nan nan nan nan nan nan nan nan nan nan nan nan nan nan nan nan nan nan nan nan nan nan nan nan nan nan nan nan nan nan
nan nan nan nan nan nan nan nan nan nan nan nan nan nan nan nan nan nan nan nan nan nan nan nan nan nan nan nan nan nan nan nan nan nan nan nan nan nan nan nan nan nan nan nan nan nan nan nan nan nan nan nan nan nan nan nan nan nan nan nan nan nan nan nan nan nan nan nan nan nan nan nan nan nan nan nan nan nan nan nan nan nan nan nan nan nan
nan nan nan nan nan nan nan nan nan nan nan nan nan nan nan nan nan nan nan nan nan nan nan nan nan nan nan nan nan nan nan nan nan nan nan nan nan nan nan nan nan nan nan nan nan nan nan nan nan nan nan nan nan nan nan nan nan nan nan nan nan nan nan nan nan nan nan nan nan nan nan nan nan nan nan nan nan nan nan nan nan nan nan nan nan nan
nan nan nan nan nan nan nan nan nan nan nan nan nan nan nan nan nan nan nan nan nan nan nan nan nan nan nan nan nan nan nan nan nan nan nan nan nan nan nan nan nan nan nan nan nan nan nan nan nan nan nan nan nan nan nan nan nan nan nan nan nan nan nan nan nan nan nan nan nan nan nan nan nan nan nan nan nan nan nan nan nan nan nan nan nan nan
nan nan nan nan nan nan nan nan nan nan nan nan nan nan nan nan nan nan nan nan nan nan nan nan nan nan nan nan nan nan nan nan nan nan nan nan nan nan nan nan nan nan nan nan nan nan nan nan nan nan nan nan nan nan nan nan nan nan nan nan nan nan nan nan nan nan nan nan nan nan nan nan nan nan nan nan nan nan nan nan nan nan nan nan nan nan
nan nan nan nan nan nan nan nan nan nan nan nan nan nan nan nan nan nan nan nan nan nan nan nan nan nan nan nan nan nan nan nan nan nan nan nan nan nan nan nan nan nan nan nan nan nan nan nan nan nan nan nan nan nan nan nan nan nan nan nan nan nan nan nan nan nan nan nan nan nan nan nan nan nan nan nan nan nan nan nan nan nan nan nan nan nan
nan nan nan nan nan nan nan nan nan nan nan nan nan nan nan nan nan nan nan nan nan nan nan nan nan nan nan nan nan nan nan nan nan nan nan nan nan nan nan nan nan nan nan nan nan nan nan nan nan nan nan nan nan nan nan nan nan nan nan nan nan nan nan nan nan nan nan nan nan nan nan nan nan nan nan nan nan nan nan nan nan nan nan nan nan nan
nan nan nan nan nan nan nan nan nan nan nan nan nan nan nan nan nan nan nan nan nan nan nan nan nan nan nan nan nan nan nan nan nan nan nan nan nan nan nan nan nan nan nan nan nan nan nan nan nan nan nan nan nan nan nan nan nan nan nan nan nan nan nan nan nan nan nan nan nan nan nan nan nan nan nan nan nan nan nan nan nan nan nan nan nan nan
nan nan nan nan nan nan nan nan nan nan nan nan nan nan nan nan nan nan nan nan nan nan nan nan nan nan nan nan nan nan nan nan nan nan nan nan nan nan nan nan nan nan nan nan nan nan nan nan nan nan nan nan nan nan nan nan nan nan nan nan nan nan nan nan nan nan nan nan nan nan nan nan nan nan nan nan nan nan nan nan nan nan nan nan nan nan
nan nan nan nan nan nan nan nan nan nan nan nan nan nan nan nan nan nan nan nan nan nan nan nan nan nan nan nan nan nan nan nan nan nan nan nan nan nan nan nan nan nan nan nan nan nan nan nan nan nan nan nan nan nan nan nan nan nan nan nan nan nan nan nan nan nan nan nan nan nan nan nan nan nan nan nan nan nan nan nan nan nan nan nan nan nan
nan nan nan nan nan nan nan nan nan nan nan nan nan nan nan nan nan nan nan nan nan nan nan nan nan nan nan nan nan nan nan nan nan nan nan nan nan nan nan nan nan nan nan nan nan nan nan nan nan nan nan nan nan nan nan nan nan nan nan nan nan nan nan nan nan nan nan nan nan nan nan nan nan nan nan nan nan nan nan nan nan nan nan nan nan nan
CIN
nan nan nan nan nan nan nan nan nan nan nan nan nan nan nan nan nan nan nan nan nan nan nan nan nan nan nan nan nan nan nan nan nan nan -0 -0 nan nan nan nan nan nan nan nan nan nan nan nan nan -0 -0 nan -0 -0 -0 -0 -0 -0 -0 -0 -0 -0 -0 -0 -0 -0 -0 -0 -0 -0 -0 nan nan nan nan nan nan nan nan nan nan nan nan nan nan nan
nan nan nan nan nan nan nan nan nan nan nan nan nan nan nan nan nan nan nan nan nan nan nan nan nan nan nan nan nan nan -0 -0 -0 -0 -0 -0 -0 -0 -0 nan nan nan nan nan nan nan -0 -0 -0 -0 -2 -2 -3 -3 -3 -3 -3 -2 -2 -2 -2 -1 -1 -0 -0 -0 -0 -0 -0 -0 nan nan nan nan nan nan nan nan nan nan nan nan nan nan nan nan
nan nan nan nan nan nan nan nan nan nan nan nan nan nan nan nan nan nan nan nan nan nan nan nan nan nan nan nan -0 -0 -0 -0 -0 -0 -0 -0 -0 -0 -0 -0 -0 -0 nan nan nan -0 -0 -0 -0 -0 -1 -1 -2 -2 -2 -2 -2 -3 nan nan nan nan -0 -0 -0 -0 -0 nan nan nan nan nan nan nan nan nan nan nan nan nan nan nan nan nan nan nan
nan nan nan nan nan nan nan nan nan nan nan nan nan nan nan nan nan nan nan nan nan nan nan nan nan nan nan nan -0 -0 -0 -0 -0 -0 -0 -0 -0 -0 -0 -0 -0 -0 -0 -0 -0 -0 -0 -0 -0 -0 -0 nan nan nan nan nan nan nan nan nan nan nan nan nan nan nan nan nan nan nan nan nan nan nan nan nan nan nan nan nan nan nan nan nan nan nan
nan nan nan nan nan nan nan nan nan nan nan nan nan nan nan nan nan nan nan nan nan nan nan nan nan nan nan nan -1 -1 -0 -0 -0 -0 -0 -0 -0 -0 -0 -0 -0 -0 -0 -0 -0 -0 -0 -0 -0 -0 nan nan nan nan nan nan nan nan nan nan nan nan nan nan nan nan nan nan nan nan nan nan nan nan nan nan nan nan nan nan nan nan nan nan nan nan
nan nan nan nan nan nan nan nan nan nan nan nan nan nan nan nan nan nan nan nan nan nan nan nan nan nan nan nan -0 -0 -0 -0 -0 -0 -0 -0 -0 -0 -0 -0 -0 -0 -0 -0 -0 -0 -0 -0 -0 -0 nan nan nan nan nan nan nan nan nan nan nan nan nan nan nan nan nan nan nan nan nan nan nan nan nan nan nan nan nan nan nan nan nan nan nan nan
nan nan nan nan nan nan nan nan nan nan nan nan nan nan nan nan nan nan nan nan nan nan nan nan nan nan nan nan -0 -0 -0 -0 -0 -0 -0 -0 -0 -0 -0 -0 -0 -0 -0 -0 -0 -0 -0 -0 -0 -0 nan nan nan nan nan nan nan nan nan nan nan nan nan nan nan nan nan nan nan nan nan nan nan nan nan nan nan nan nan nan nan nan nan nan nan nan
nan nan nan nan nan nan nan nan nan nan nan nan nan nan nan nan nan nan nan nan nan nan nan nan nan nan nan nan nan nan nan nan -3 -3 -2 -0 -0 -0 -0 -0 -0 -0 -0 -0 -0 -0 -0 -0 -0 -0 -0 nan nan nan nan nan nan nan nan nan nan nan nan nan nan nan nan nan nan nan nan nan nan nan nan nan nan nan nan nan nan nan nan nan nan nan
nan nan nan nan nan nan nan nan nan nan nan nan nan nan nan nan nan nan nan nan nan nan nan nan nan nan nan nan nan nan nan nan nan nan nan nan nan nan -1 -0 -0 -0 -0 -0 -0 -0 -0 -0 -0 -0 -0 nan nan nan nan nan nan nan nan nan nan nan nan nan nan nan nan nan nan nan nan nan nan nan nan nan nan nan nan nan nan nan nan nan nan nan
nan nan nan nan nan nan nan nan nan nan nan nan nan nan nan nan nan nan nan nan nan nan nan nan nan nan nan nan nan nan nan nan -0 -0 -0 nan -0 -0 -2 -3 -3 -3 -0 -0 -0 -0 -0 -0 -0 -0 nan nan nan nan nan nan nan nan nan nan nan nan nan nan nan nan nan nan nan nan nan nan nan nan nan nan nan nan nan nan nan nan nan nan nan nan
nan nan nan nan nan nan nan nan nan nan nan nan nan nan nan nan nan nan nan nan nan nan nan nan nan nan nan nan nan nan nan nan nan nan nan -4 -3 -3 -2 -5 -5 -2 -1 -0 -0 -0 -0 -0 -0 -0 nan nan nan nan nan nan nan nan nan nan nan nan nan nan nan nan nan nan nan nan nan nan nan nan nan nan nan nan nan nan nan nan nan nan nan nan
nan nan nan nan nan nan nan nan nan nan nan nan nan nan nan nan nan nan nan nan nan nan nan nan nan nan nan nan nan nan nan nan nan nan nan nan nan nan nan nan nan -6 -4 -0 -0 -0 -0 -0 -0 nan nan nan nan nan nan nan nan nan nan nan nan nan nan nan nan nan nan nan nan nan nan nan nan nan nan nan nan nan nan nan nan nan nan nan nan nan
nan nan nan nan nan nan nan nan nan nan nan nan nan nan nan nan nan nan nan nan nan nan nan nan nan nan nan nan nan nan nan nan nan nan nan nan nan nan nan nan nan nan nan nan nan nan -1 -0 -0 nan nan nan nan nan nan nan nan nan nan nan nan nan nan nan nan nan nan nan nan nan nan nan nan nan nan nan nan nan nan nan nan nan nan nan nan nan
nan nan nan nan nan nan nan nan nan nan nan nan nan nan nan nan nan nan nan nan nan nan nan nan nan nan nan nan nan nan nan nan nan nan nan nan nan nan nan nan nan nan nan nan nan nan nan nan nan nan nan nan nan nan nan nan nan nan nan nan nan nan nan nan nan nan nan nan nan nan nan nan nan nan nan nan nan nan nan nan nan nan nan nan nan nan
nan nan nan nan nan nan nan nan nan nan nan nan nan nan nan nan nan nan nan nan nan nan nan nan nan nan nan nan nan nan nan nan nan nan nan nan nan nan nan nan nan nan nan nan nan nan nan nan nan nan nan nan nan nan nan nan nan nan nan nan nan nan nan nan nan nan nan nan nan nan nan nan nan nan nan nan nan nan nan nan nan nan nan nan nan nan
nan nan nan nan nan nan nan nan nan nan nan nan nan nan nan nan nan nan nan nan nan nan nan nan nan nan nan nan nan nan nan nan nan nan nan nan nan nan nan nan nan nan nan nan nan nan nan nan nan nan nan nan nan nan nan nan nan nan nan nan nan nan nan nan nan nan nan nan nan nan nan nan nan nan nan nan nan nan nan nan nan nan nan nan nan nan
nan nan nan nan nan nan nan nan nan nan nan nan nan nan nan nan nan nan nan nan nan nan nan nan nan nan nan nan nan nan nan nan nan nan nan nan nan nan nan nan nan nan nan nan nan nan nan nan nan nan nan nan nan nan nan nan nan nan nan nan nan nan nan nan nan nan nan nan nan nan nan nan nan nan nan nan nan nan nan nan nan nan nan nan nan nan
nan nan nan nan nan nan nan nan nan nan nan nan nan nan nan nan nan nan nan nan nan nan nan nan nan nan nan nan nan nan nan nan nan nan nan nan nan nan nan nan nan nan nan nan nan nan nan nan nan nan nan nan nan nan nan nan nan nan nan nan nan nan nan nan nan nan nan nan -0 -0 -0 nan nan nan nan -0 -0 -0 -0 -0 -0 -0 nan nan nan nan
nan nan nan nan nan nan nan nan nan nan nan nan nan nan nan nan nan nan nan nan nan nan nan nan nan nan nan nan nan nan nan nan nan nan nan nan nan nan nan nan nan nan nan nan nan nan nan nan nan nan nan nan nan nan nan nan nan nan nan nan nan nan nan nan nan nan nan -0 -0 -0 -0 -0 -0 -0 -0 -0 -0 -0 -0 -0 -0 -0 nan nan nan nan
nan nan nan nan nan nan nan nan nan nan nan nan nan nan nan nan nan nan nan nan nan nan nan nan nan nan nan nan nan nan nan nan nan nan nan nan nan nan nan nan nan nan nan nan nan nan nan nan nan nan nan nan nan nan nan nan nan nan nan nan nan nan nan nan nan nan -0 -0 -0 -0 -0 -0 -0 -0 -0 -0 -0 -0 -0 -0 -0 -0 -0 -0 -0 nan
nan nan nan nan nan nan nan nan nan nan nan nan nan nan nan nan nan nan nan nan nan nan nan nan nan nan nan nan nan nan nan nan nan nan nan nan nan nan nan nan nan nan nan nan nan nan nan nan nan nan nan nan nan nan nan nan nan nan nan nan nan nan nan nan nan nan -0 -0 -0 -0 -0 -0 -0 -0 -0 -0 -0 -0 -0 -0 -0 -0 -0 -0 -0 nan
nan nan nan nan nan nan nan nan nan nan nan nan nan nan nan nan nan nan nan nan nan nan nan nan nan nan nan nan nan nan nan nan nan nan nan nan nan nan nan nan nan nan nan nan nan nan nan nan nan nan nan nan nan nan nan nan nan nan nan nan nan nan nan nan nan -0 -0 -0 -0 -0 -0 -0 -0 -0 -0 -0 -0 -0 -0 -0 -0 -0 -0 -0 -0 nan
nan nan nan nan nan nan nan nan nan nan nan nan nan nan nan nan nan nan nan nan nan nan nan nan nan nan nan nan nan nan nan nan nan nan nan nan nan nan nan nan nan nan nan nan nan nan nan nan nan nan nan nan nan nan nan nan nan nan nan nan nan nan nan -0 -0 -0 -0 -0 -0 -0 -0 -0 -0 -0 -0 -0 -0 -0 -0 -0 -0 -0 -0 -0 -0 nan
nan nan nan nan nan nan nan nan nan nan nan nan nan nan nan nan nan nan nan nan nan nan nan nan nan nan nan nan nan nan nan nan nan nan nan nan nan nan nan nan nan nan nan nan nan nan nan nan nan nan nan nan nan nan nan nan nan nan nan nan nan nan nan -0 -0 -0 -0 -0 -0 -0 -0 -0 -0 -0 -0 -0 -0 -0 -0 -0 -0 -0 -0 -0 -0 -0
nan nan nan nan nan nan nan nan nan nan nan nan nan nan nan nan nan nan nan nan nan nan nan nan nan nan nan nan nan nan nan nan nan nan nan nan nan nan nan nan nan nan nan nan nan nan nan nan nan nan nan nan nan nan nan nan nan nan nan nan nan nan -0 -0 -0 -0 -0 -0 -0 -0 -0 -0 -0 -0 -0 -0 -0 -0 -0 -0 -0 -0 -0 -0 -0 -0
nan nan nan nan nan nan nan nan nan nan nan nan nan nan nan nan nan nan nan nan nan nan nan nan nan nan nan nan nan nan nan nan nan nan nan nan nan nan nan nan nan nan nan nan nan nan nan nan nan nan nan nan nan nan nan nan nan nan nan nan nan nan -0 -0 -0 -0 -0 -0 -0 -0 -0 -0 -0 -0 -0 -0 -0 -0 -0 -0 -0 -0 -0 -0 -0 -0
nan nan nan nan nan nan nan nan nan nan nan nan nan nan nan nan nan nan nan nan nan nan nan nan nan nan nan nan nan nan nan nan nan nan nan nan nan nan nan nan nan nan nan nan nan nan nan nan nan nan nan nan nan nan nan nan nan nan nan nan nan nan -0 -0 -0 -0 -0 -0 -0 -0 -0 -0 -0 -0 -0 -0 -0 -0 -0 -0 -0 -0 -0 -0 -0 -0
nan nan nan nan nan nan nan nan nan nan nan nan nan nan nan nan nan nan nan nan nan nan nan nan nan nan nan nan nan nan nan nan nan nan nan nan nan nan nan nan nan nan nan nan nan nan nan nan nan nan nan nan nan nan nan nan nan nan nan nan nan nan -0 -0 -0 -0 -0 -0 -0 -0 -0 -0 -0 -0 -0 -0 -0 -0 -0 -0 -0 -0 -0 -0 -0 nan
nan nan nan nan nan nan nan -0 -0 -0 -0 -0 -0 -0 nan nan nan nan nan nan nan nan nan nan nan nan nan nan nan nan nan nan nan nan nan nan nan nan nan nan nan nan nan nan nan nan nan nan nan nan nan nan nan nan nan nan nan nan nan nan nan nan nan -0 -0 -0 -0 -0 -0 -0 -0 -0 -0 -0 -0 -0 -0 -0 -0 -0 -0 -0 -0 -16 -16 nan
nan nan nan nan nan nan nan nan -0 -0 -0 -0 -0 -0 nan nan nan nan nan nan nan nan nan nan nan nan nan nan nan nan nan nan nan nan nan nan nan nan nan nan nan nan nan nan nan nan nan nan nan nan nan nan nan nan nan nan nan nan nan nan nan nan nan -0 -0 -0 -0 -0 -0 -0 -0 -0 -0 -0 -0 -0 -0 -0 -0 -0 -0 -0 -14 nan nan nan
nan nan nan nan nan nan nan nan -4 -4 -0 -0 -0 -0 nan nan nan nan nan nan nan nan nan nan nan nan nan nan nan nan nan nan nan nan nan nan nan nan nan nan nan nan nan nan nan nan nan nan nan nan nan nan nan nan nan nan nan nan nan nan nan nan nan -0 -0 -0 -0 -0 -0 -0 -0 -0 -0 -0 -0 -0 -0 -0 -0 -0 -0 -0 nan nan nan nan
nan nan nan nan nan nan nan nan nan nan nan nan nan nan nan nan nan nan nan nan nan nan nan nan nan nan nan nan nan nan nan nan nan nan nan nan nan nan nan nan nan nan nan nan nan nan nan nan nan nan nan nan nan nan nan nan nan nan nan nan nan nan nan -0 -0 -1 -3 -0 -0 -0 -0 nan nan nan nan nan nan nan -0 -0 -0 -0 nan nan nan nan
nan nan nan nan nan nan nan nan nan nan nan nan nan nan nan nan nan nan nan nan nan nan nan nan nan nan nan nan nan nan nan nan nan nan nan nan nan nan nan nan nan nan nan nan nan nan nan nan nan nan nan nan nan nan nan nan nan nan nan nan nan nan nan nan nan nan nan nan nan nan nan nan nan nan nan nan nan nan nan -0 -0 -0 -3 nan nan nan
nan nan nan nan nan nan nan nan nan nan nan nan nan nan nan nan nan nan nan nan nan nan nan nan nan nan nan nan nan nan nan nan nan nan nan nan nan nan nan nan nan nan nan nan nan nan nan nan nan nan nan nan nan nan nan nan nan nan nan nan nan nan nan nan nan nan nan nan nan nan nan nan nan nan nan nan nan nan nan nan nan -0 -0 -16 -16 nan
nan nan nan nan nan nan nan nan nan nan nan nan nan nan nan nan nan nan nan nan nan nan nan nan nan nan nan nan nan nan nan nan nan nan nan nan nan nan nan nan nan nan nan nan nan nan nan nan nan nan nan nan nan nan nan nan nan nan nan nan nan nan nan nan nan nan nan nan nan nan nan nan nan nan nan nan nan nan nan nan nan nan -0 -0 -0 -4
nan nan nan nan nan nan nan nan nan nan nan nan nan nan nan nan nan nan nan nan nan nan nan nan nan nan nan nan nan nan nan nan nan nan nan nan nan nan nan nan nan nan nan nan nan nan nan nan nan nan nan nan nan nan nan nan nan nan nan nan nan nan nan nan nan nan nan nan nan nan nan nan nan nan nan nan nan nan nan nan nan nan nan -0 -0 -0
nan nan nan nan nan nan nan nan nan nan nan nan nan nan nan nan nan nan nan nan nan nan nan nan nan nan nan nan nan nan nan nan nan nan nan nan nan nan nan nan nan nan nan nan nan nan nan nan nan nan nan nan nan nan nan nan nan nan nan nan nan nan nan nan nan nan nan nan nan nan nan nan nan nan nan nan nan nan nan nan nan nan nan -0 -0 -0
nan nan nan nan nan nan nan nan nan nan nan nan nan nan nan nan nan nan nan nan nan nan nan nan nan nan nan nan nan nan nan nan nan nan nan nan nan nan nan nan nan nan nan nan nan nan nan nan nan nan nan nan nan nan nan nan nan nan nan nan nan nan nan nan nan nan nan nan nan nan nan nan nan nan nan nan nan nan nan nan nan nan nan nan nan -0
nan nan nan nan nan nan nan nan nan nan nan nan nan nan nan nan nan nan nan nan nan nan nan nan nan nan nan nan nan nan nan nan nan nan nan nan nan nan nan nan nan nan nan nan nan nan nan nan nan nan nan nan nan nan nan nan nan nan nan nan nan nan nan nan nan nan nan nan nan nan nan nan nan nan nan nan nan nan nan nan nan nan nan nan nan nan
nan nan nan nan nan nan nan nan nan nan nan nan nan nan nan nan nan nan nan nan nan nan nan nan nan nan nan nan nan nan nan nan nan nan nan nan nan nan nan nan nan nan nan nan nan nan nan nan nan nan nan nan nan nan nan nan nan nan nan nan nan nan nan nan nan nan nan nan nan nan nan nan nan nan nan nan nan nan nan nan nan nan nan nan nan nan
nan nan nan nan nan nan nan nan nan nan nan nan nan nan nan nan nan nan nan nan nan nan nan nan nan nan nan nan nan nan nan nan nan nan nan nan nan nan nan nan nan nan nan nan nan nan nan nan nan nan nan nan nan nan nan nan nan nan nan nan nan nan nan nan nan nan nan nan nan nan nan nan nan nan nan nan nan nan nan nan nan nan nan nan nan nan
nan nan nan nan nan nan nan nan nan nan nan nan nan nan nan nan nan nan nan nan nan nan nan nan nan nan nan nan nan nan nan nan nan nan nan nan nan nan nan nan nan nan nan nan nan nan nan nan nan nan nan nan nan nan nan nan nan nan nan nan nan nan nan nan nan nan nan nan nan nan nan nan nan nan nan nan nan nan nan nan nan nan nan nan nan nan
nan nan nan nan nan nan nan nan nan nan nan nan nan nan nan nan nan nan nan nan nan nan nan nan nan nan nan nan nan nan nan nan nan nan nan nan nan nan nan nan nan nan nan nan nan nan nan nan nan nan nan nan nan nan nan nan nan nan nan nan nan nan nan nan nan nan nan nan nan nan nan nan nan nan nan nan nan nan nan nan nan nan nan nan nan nan
nan nan nan nan nan nan nan nan nan nan nan nan nan nan nan nan nan nan nan nan nan nan nan nan nan nan nan nan nan nan nan nan nan nan nan nan nan nan nan nan nan nan nan nan nan nan nan nan nan nan nan nan nan nan nan nan nan nan nan nan nan nan nan nan nan nan nan nan nan nan nan nan nan nan nan nan nan nan nan nan nan nan nan nan nan nan
nan nan nan nan nan nan nan nan nan nan nan nan nan nan nan nan nan nan nan nan nan nan nan nan nan nan nan nan nan nan nan nan nan nan nan nan nan nan nan nan nan nan nan nan nan nan nan nan nan nan nan nan nan nan nan nan nan nan nan nan nan nan nan nan nan nan nan nan nan nan nan nan nan nan nan nan nan nan nan nan nan nan nan nan nan nan
nan nan nan nan nan nan nan nan nan nan nan nan nan nan nan nan nan nan nan nan nan nan nan nan nan nan nan nan nan nan nan nan nan nan nan nan nan nan nan nan nan nan nan nan nan nan nan nan nan nan nan nan nan nan nan nan nan nan nan nan nan nan nan nan nan nan nan nan nan nan nan nan nan nan nan nan nan nan nan nan nan nan nan nan nan nan
nan nan nan nan nan nan nan nan nan nan nan nan nan nan nan nan nan nan nan nan nan nan nan nan nan nan nan nan nan nan nan nan nan nan nan nan nan nan nan nan nan nan nan nan nan nan nan nan nan nan nan nan nan nan nan nan nan nan nan nan nan nan nan nan nan nan nan nan nan nan nan nan nan nan nan nan nan nan nan nan nan nan nan nan nan nan
nan nan nan nan nan nan nan nan nan nan nan nan nan nan nan nan nan nan nan nan nan nan nan nan nan nan nan nan nan nan nan nan nan nan nan nan nan nan nan nan nan nan nan nan nan nan nan nan nan nan nan nan nan nan nan nan nan nan nan nan nan nan nan nan nan nan nan nan nan nan nan nan nan nan nan nan nan nan nan nan nan nan nan nan nan nan
nan nan nan nan nan nan nan nan nan nan nan nan nan nan nan nan nan nan nan nan nan nan nan nan nan nan nan nan nan nan nan nan nan nan nan nan nan nan nan nan nan nan nan nan nan nan nan nan nan nan nan nan nan nan nan nan nan nan nan nan nan nan nan nan nan nan nan nan nan nan nan nan nan nan nan nan nan nan nan nan nan nan nan nan nan nan
nan nan nan nan nan nan nan nan nan nan nan nan nan nan nan nan nan nan nan nan nan nan nan nan nan nan nan nan nan nan nan nan nan nan nan nan nan nan nan nan nan nan nan nan nan nan nan nan nan nan nan nan nan nan nan nan nan nan nan nan nan nan nan nan nan nan nan nan nan nan nan nan nan nan nan nan nan nan nan nan nan nan nan nan nan nan
nan nan nan nan nan nan nan nan nan nan nan nan nan nan nan nan nan nan nan nan nan nan nan nan nan nan nan nan nan nan nan nan nan nan nan nan nan nan nan nan nan nan nan nan nan nan nan nan nan nan nan nan nan nan nan nan nan nan nan nan nan nan nan nan nan nan nan nan nan nan nan nan nan nan nan nan nan nan nan nan nan nan nan nan nan nan
Wind_Speed
1 1 1 1 2 2 2 3 3 3 3 2 1 1 1 2 2 2 3 3 3 2 1 0 2 3 5 8 11 13 15 15 15 15 15 14 14 13 13 12 11 10 8 7 6 5 5 5 5 6 6 6 7 7 7 7 7 6 6 6 6 7 8 9 10 11 11 11 11 10 10 9 8 7 6 5 5 5 5 6 6 6 6 5 3 2
1 1 1 1 2 2 2 3 4 4 4 3 2 2 2 2 1 2 2 3 3 3 2 0 2 3 5 7 10 13 14 15 15 15 15 14 14 13 13 12 11 9 8 7 6 5 5 5 5 5 5 5 5 6 6 6 6 6 6 6 7 8 9 10 10 10 10 10 10 10 9 8 7 6 5 4 4 4 5 5 5 5 5 4 3 2
2 1 2 2 2 3 2 3 3 3 3 3 3 2 2 2 2 1 2 2 2 3 3 2 1 3 5 6 10 13 14 14 15 15 14 14 14 13 13 12 11 9 8 7 6 6 5 5 5 6 6 7 7 8 8 9 9 9 10 11 11 12 11 11 11 11 10 10 10 9 8 7 6 5 5 4 4 4 4 5 5 4 4 3 2 2
2 2 3 2 2 2 2 2 2 2 2 2 2 2 2 2 2 1 1 2 2 2 3 3 1 2 4 5 8 12 14 14 15 15 14 14 13 13 12 11 11 9 8 8 7 7 7 7 7 8 8 9 9 10 10 11 11 11 12 12 13 13 12 12 11 11 11 10 9 9 8 7 6 5 5 4 4 4 4 4 4 3 3 2 2 2
2 3 3 2 2 2 1 1 1 2 2 2 2 2 2 2 2 1 1 2 2 2 2 3 2 0 2 4 7 10 13 14 14 14 14 14 13 13 12 11 11 10 9 9 8 8 8 8 9 9 9 9 10 10 10 11 11 11 11 12 12 12 12 11 11 10 10 9 9 8 7 6 6 5 4 4 4 3 3 3 2 2 2 2 2 2
2 2 2 2 2 1 0 0 1 2 2 2 2 2 2 2 2 1 1 2 2 2 2 2 2 1 1 3 6 10 13 14 14 14 14 13 13 12 12 11 11 10 10 10 9 9 9 9 9 9 9 9 9 10 10 10 10 10 11 11 11 11 11 10 10 9 9 8 7 7 6 5 5 4 4 3 3 3 2 2 2 1 1 2 2 3
1 2 2 2 1 1 0 0 0 1 2 1 1 2 2 2 2 2 2 1 1 1 2 2 2 2 1 2 5 9 11 12 13 13 13 13 13 12 12 11 11 11 11 10 10 10 10 10 9 9 9 9 9 9 9 10 10 10 10 10 10 10 10 10 9 8 8 7 6 6 5 4 4 3 3 3 3 2 2 2 2 2 2 2 2 3
1 1 1 2 1 1 0 0 0 1 1 2 2 1 1 1 1 2 2 2 2 1 1 2 2 2 2 2 3 6 7 8 9 10 11 11 11 12 12 12 11 11 11 11 11 11 10 10 10 9 9 9 9 9 9 9 9 9 10 10 10 9 9 9 8 7 7 6 5 4 4 3 3 2 2 2 2 2 2 2 2 2 3 3 3 3
3 2 2 2 2 2 1 1 1 1 1 2 2 2 2 1 1 1 2 2 2 1 1 1 1 1 2 2 2 3 5 5 5 5 6 7 7 8 10 11 11 11 11 11 11 11 11 10 10 9 9 9 9 9 9 9 9 9 9 9 9 9 8 8 7 6 6 5 4 4 3 3 2 2 1 1 1 1 2 2 2 3 3 3 3 4
4 3 3 2 2 2 2 1 1 1 0 1 2 2 2 2 2 1 1 0 1 1 1 0 1 1 1 1 1 2 4 5 6 6 6 6 7 7 8 9 9 10 11 11 11 11 11 10 10 9 9 9 8 8 8 9 9 9 9 8 8 8 7 7 6 5 4 4 3 3 2 2 2 1 1 1 0 0 1 1 2 2 3 3 3 3
4 3 3 2 2 1 1 1 1 0 0 1 1 1 1 2 3 3 3 2 2 1 1 1 0 1 1 1 1 2 3 3 4 5 7 7 8 8 8 8 8 9 11 11 11 11 10 10 10 9 9 8 8 8 8 8 8 8 8 8 8 7 6 6 5 4 4 3 3 2 2 2 2 1 1 1 1 0 0 1 1 2 2 2 3 3
3 2 3 2 2 1 1 1 1 1 1 2 1 1 2 2 3 4 4 4 4 3 2 1 1 0 1 1 2 2 3 3 3 3 3 4 5 6 6 6 7 8 9 9 10 10 10 10 10 9 8 8 8 9 9 8 8 8 8 7 7 6 5 4 4 3 3 3 3 3 2 2 2 2 1 1 1 1 1 0 0 1 2 2 2 3
3 2 2 2 2 2 2 2 1 1 2 3 3 4 4 3 3 3 3 4 4 3 3 1 0 1 1 1 1 2 3 3 3 3 2 3 3 3 3 3 4 4 5 5 6 6 8 9 9 9 9 8 9 9 9 8 8 8 7 7 6 5 4 3 3 3 3 3 3 3 3 2 2 2 2 2 1 1 1 1 1 0 1 1 2 2
3 2 2 3 3 3 3 3 3 3 4 4 5 4 4 3 3 3 3 3 3 3 3 2 1 0 2 2 1 1 2 3 3 3 2 2 2 3 3 3 3 3 3 3 3 4 6 6 6 6 8 8 9 9 9 9 8 8 7 6 5 4 4 3 3 4 4 4 4 4 4 3 3 2 2 2 2 2 2 2 1 1 1 1 1 2
3 3 3 3 4 4 4 4 4 5 5 5 4 3 2 3 4 4 4 3 3 3 3 2 1 0 1 1 1 0 2 3 3 3 3 2 2 2 3 3 3 3 3 3 3 3 4 3 3 3 4 6 7 8 8 8 8 8 7 6 5 4 4 4 4 4 5 5 5 5 4 4 3 3 2 2 2 2 2 2 2 2 1 1 1 1
4 4 5 5 4 4 4 4 4 5 4 4 3 3 3 4 4 5 5 4 4 3 3 3 2 1 2 2 1 1 2 3 3 4 4 2 1 1 2 3 3 3 3 3 3 3 3 2 2 2 3 6 8 9 10 9 8 8 7 6 5 5 4 4 5 5 6 6 6 5 5 4 4 3 3 3 3 2 2 3 2 2 1 1 0 1
4 4 5 5 5 4 4 4 4 4 4 3 3 4 4 5 5 5 4 4 4 4 4 4 4 3 2 2 2 2 2 3 4 4 4 3 2 1 2 3 4 4 3 3 3 3 3 3 2 2 3 6 9 10 10 10 9 8 8 7 6 5 5 5 5 6 7 7 6 6 5 5 4 4 3 3 3 3 3 3 3 3 2 1 1 1
4 5 5 5 5 4 4 4 4 4 3 4 4 4 4 4 4 4 4 4 4 5 5 5 4 4 3 3 3 3 3 3 4 4 4 3 2 1 1 2 3 4 4 3 3 3 4 3 3 3 4 8 10 10 10 10 9 9 8 7 6 6 5 6 6 7 7 7 7 6 6 5 5 4 4 4 3 3 3 3 3 3 3 2 1 1
4 5 5 5 4 4 4 4 5 5 5 5 4 4 4 4 4 4 4 5 5 5 6 5 5 4 4 3 3 4 4 4 4 4 4 4 3 2 1 2 3 3 3 3 3 3 3 3 4 5 7 9 10 10 10 10 9 9 8 7 7 6 6 7 7 7 8 8 7 7 6 6 5 5 4 4 4 4 4 4 4 3 3 2 2 2
5 5 5 4 4 4 4 5 6 6 6 6 5 5 5 5 5 5 5 5 5 5 4 5 5 5 4 3 3 4 5 4 4 4 4 4 3 2 1 3 3 3 3 2 2 2 2 2 3 4 7 9 9 10 9 9 9 8 8 7 7 7 7 7 8 8 8 8 7 7 6 6 6 5 5 5 4 4 4 4 4 3 3 3 2 2
5 5 5 4 4 4 4 5 6 7 7 6 6 5 5 5 5 6 6 5 5 5 5 5 5 4 3 3 4 5 7 6 5 4 4 3 2 2 2 3 3 4 3 2 1 1 2 2 2 2 5 8 9 9 9 9 9 8 8 8 8 8 8 8 8 8 8 8 8 7 7 6 6 6 6 5 5 5 5 4 4 4 3 3 2 2
5 5 4 5 5 4 4 5 6 7 8 8 7 6 6 6 6 6 6 6 6 6 5 4 3 1 0 1 3 5 7 6 6 5 4 3 3 3 2 3 3 4 3 2 1 0 1 2 2 2 4 7 8 9 9 9 9 9 9 8 8 8 8 9 9 9 9 8 8 7 7 7 7 6 6 6 6 5 5 5 4 4 3 3 3 2
4 4 3 4 4 4 4 4 5 7 8 8 8 7 5 6 6 6 6 6 5 4 3 2 1 1 2 1 2 4 5 5 4 4 4 4 4 3 2 3 3 4 3 2 1 1 1 1 1 2 3 7 9 9 9 9 9 9 9 9 9 9 9 9 9 9 9 9 8 8 7 7 7 7 6 6 6 6 5 5 4 4 3 3 3 3
5 4 3 3 3 3 3 4 5 6 6 6 6 5 4 4 4 4 4 4 3 3 3 3 3 2 2 2 2 2 3 3 3 3 4 4 4 3 3 3 4 4 3 2 2 2 2 1 1 1 1 6 8 9 9 9 9 10 10 10 9 9 9 9 9 9 9 9 9 8 8 8 7 7 7 6 6 6 5 5 4 4 3 3 3 3
5 4 2 2 2 3 3 4 5 6 6 5 5 4 4 4 4 4 4 4 4 4 4 4 3 2 1 2 2 2 2 1 1 3 3 3 3 2 2 3 4 4 3 2 1 2 2 1 1 0 1 4 7 9 10 10 10 10 10 10 10 10 10 9 10 10 10 9 9 9 8 8 8 7 7 7 6 6 5 5 4 4 3 3 3 3
5 4 4 3 4 4 5 7 9 10 10 7 6 5 5 5 5 5 4 4 4 5 5 4 3 3 2 2 3 3 3 1 1 2 2 3 3 2 2 2 3 4 3 2 1 2 2 2 1 1 1 2 5 8 10 10 10 10 10 10 10 10 10 10 10 10 10 10 9 9 9 8 8 8 8 7 7 7 6 6 5 5 4 4 3 3
7 7 7 6 6 6 7 9 11 13 14 12 10 8 7 6 6 6 5 5 6 6 6 5 4 4 3 3 3 3 3 2 2 1 2 3 3 3 2 2 3 3 3 2 1 2 3 3 2 2 2 2 3 6 9 10 10 10 9 9 9 9 9 10 10 10 10 10 10 9 9 9 8 8 8 8 8 7 7 7 6 6 5 4 3 3
8 8 8 8 8 8 9 10 12 14 15 15 15 14 10 8 7 7 7 6 6 6 6 6 5 4 4 4 3 3 3 3 3 2 2 3 3 3 3 2 3 3 4 2 1 1 1 2 2 2 2 2 2 3 6 9 9 9 9 9 9 9 9 10 10 10 11 10 10 10 9 9 8 8 8 8 8 7 7 7 7 6 6 4 3 2
7 8 9 9 9 10 10 11 12 14 16 17 17 15 11 8 7 7 7 7 7 7 7 6 5 4 4 3 2 2 3 4 4 3 3 3 3 3 3 3 3 3 4 3 1 1 1 0 1 2 2 3 3 2 3 6 7 7 8 8 9 9 10 10 10 11 11 11 10 10 9 8 8 7 7 7 7 7 7 7 7 6 4 3 3 2
5 6 6 8 8 9 9 8 10 12 15 17 17 15 11 7 6 6 6 7 7 7 7 6 5 4 4 3 3 2 3 4 4 4 4 3 3 3 3 3 3 3 4 3 2 0 1 1 1 2 3 4 3 3 2 3 3 4 4 6 7 8 10 11 11 11 11 11 10 10 9 8 7 7 6 6 6 6 7 7 6 5 3 2 2 2
4 4 4 5 5 6 6 6 7 9 12 14 15 13 9 6 5 4 5 6 7 7 7 6 5 5 5 4 4 3 3 4 5 5 4 4 3 4 4 4 4 3 3 3 3 2 1 1 1 1 2 3 3 3 3 3 2 2 3 3 4 6 10 11 11 10 11 11 10 10 9 8 7 6 5 5 5 5 6 6 6 5 3 2 2 2
4 4 4 4 4 4 4 4 5 5 7 9 9 8 7 5 4 4 4 6 6 6 6 5 5 5 5 5 4 4 3 4 5 7 6 4 3 3 4 4 4 3 2 2 3 3 2 2 1 1 2 2 2 3 3 3 3 3 3 3 3 4 8 9 9 9 9 10 10 10 9 8 7 6 5 5 5 5 5 6 6 5 3 3 2 2
5 4 4 4 4 3 4 4 4 4 4 5 4 4 4 4 3 3 4 5 5 5 5 5 5 5 5 4 3 2 2 3 6 8 8 5 3 3 3 4 4 4 2 1 2 2 2 2 2 2 1 2 2 2 3 3 3 3 3 3 2 3 5 6 6 6 6 7 7 8 8 7 7 6 5 5 5 5 5 6 6 5 4 3 2 2
5 5 4 4 4 4 4 4 4 4 4 4 4 4 4 3 3 3 3 3 4 4 4 5 5 5 5 4 2 1 1 3 6 9 9 6 4 4 4 4 5 4 3 2 1 1 2 2 2 2 2 1 1 1 2 2 2 2 2 2 2 2 3 3 4 4 4 4 4 4 5 5 5 5 5 5 5 5 6 6 7 7 6 4 3 2
5 5 5 5 4 4 4 4 4 4 4 4 4 4 4 4 3 3 3 2 2 2 2 3 4 5 6 5 4 3 2 3 7 9 9 6 4 4 4 5 5 5 4 3 2 2 2 2 3 3 3 2 1 1 1 2 1 1 1 2 2 2 2 3 3 3 3 3 2 2 2 2 2 3 4 5 6 6 7 7 8 8 8 7 6 4
6 6 6 5 5 5 5 5 5 5 5 4 4 4 4 4 3 3 3 3 3 3 3 2 2 2 4 5 5 5 4 5 7 9 9 6 5 4 4 4 5 5 5 4 3 3 2 3 3 4 4 3 2 1 1 1 1 1 1 1 2 2 2 2 3 3 3 3 3 2 2 2 2 2 3 5 6 7 7 8 8 8 9 9 8 7
6 6 6 6 5 5 6 5 5 5 5 4 4 4 4 4 4 4 3 3 4 4 4 4 3 3 3 3 3 4 5 6 7 8 8 6 5 4 4 4 5 6 6 5 5 4 3 3 3 3 3 3 2 2 2 2 2 1 1 1 1 1 1 2 3 3 3 3 3 3 3 2 2 3 3 5 6 6 6 7 7 8 9 9 9 9
6 6 6 5 5 5 5 5 5 5 5 4 4 4 4 4 4 4 4 4 4 4 4 4 4 5 6 6 5 5 5 6 6 7 6 5 4 4 4 4 5 5 5 5 5 5 4 4 4 4 3 2 2 3 3 3 3 3 2 1 1 1 1 2 2 3 3 3 3 3 3 2 2 2 2 2 2 1 2 2 3 5 7 7 9 10
7 6 6 6 6 5 5 5 5 5 5 5 5 5 5 5 5 5 5 4 5 5 5 5 5 5 6 7 7 7 6 6 6 6 5 4 4 3 4 4 5 5 4 4 4 4 5 4 4 4 4 3 2 2 3 3 4 4 3 2 1 1 1 2 2 3 3 3 3 2 2 2 2 2 1 1 1 1 1 1 2 2 3 3 4 7
7 7 7 7 6 6 5 5 5 5 5 5 6 6 6 6 5 5 5 5 5 5 6 6 6 6 6 6 6 6 6 5 5 5 4 3 2 3 4 5 5 5 4 4 4 4 4 4 3 4 4 3 3 3 3 3 3 4 4 3 2 2 2 2 3 3 3 3 3 3 2 1 1 2 2 2 2 2 2 2 2 2 2 2 2 3
7 6 6 6 6 5 5 5 5 5 6 6 6 5 5 5 5 4 4 5 5 5 5 6 6 6 6 6 6 5 5 5 5 4 3 2 2 3 4 4 5 5 5 4 4 3 4 4 3 3 3 3 3 3 4 4 5 6 6 4 3 3 3 4 4 3 3 3 3 3 3 2 2 2 2 2 2 3 3 3 2 2 2 2 3 3
7 6 5 5 4 4 4 5 6 6 6 6 6 5 5 5 5 5 5 4 4 3 3 4 4 5 5 5 5 5 5 5 5 4 4 4 3 4 4 4 4 4 4 4 4 3 3 4 4 4 3 3 3 3 3 4 5 6 6 4 3 2 2 3 3 3 4 3 3 3 4 3 2 2 2 2 2 2 3 3 3 4 3 3 3 3
6 5 5 4 4 4 6 6 6 6 6 6 5 5 5 5 5 6 6 5 5 5 4 4 5 5 5 4 3 3 4 4 4 4 4 4 4 4 4 4 4 4 4 4 4 3 2 3 3 3 3 3 4 4 4 4 4 4 5 5 4 3 1 2 2 2 3 3 3 3 3 2 2 2 2 1 1 2 2 3 4 5 4 3 3 3
5 4 4 4 4 5 6 5 5 6 6 6 6 5 5 5 6 6 6 5 5 5 5 4 4 5 5 4 3 2 2 3 4 5 5 5 5 4 4 4 4 3 3 4 4 3 3 2 2 1 2 3 3 4 4 4 4 4 4 4 4 4 3 2 3 3 3 2 2 2 2 2 2 1 1 0 0 1 1 2 2 2 3 2 2 2
4 4 4 4 5 5 5 5 6 6 6 6 6 6 5 5 6 6 5 5 5 5 5 5 5 5 4 4 3 3 2 2 3 3 4 5 6 6 5 4 4 3 3 3 3 3 3 3 2 1 1 2 3 3 3 4 4 4 4 4 4 3 2 2 3 4 3 3 2 2 2 2 2 2 1 0 1 1 1 1 2 2 2 1 2 2
4 5 5 5 5 6 7 6 6 6 5 5 6 5 5 5 5 5 6 6 6 5 5 5 5 5 5 5 4 4 3 2 1 2 2 3 4 4 4 4 4 4 3 3 3 3 3 3 3 2 2 2 2 2 2 3 4 4 4 4 3 2 2 2 2 3 4 4 3 3 2 3 3 2 1 1 1 1 1 2 2 3 3 3 2 3
6 6 6 6 6 6 6 6 6 6 6 6 5 5 5 5 5 5 5 5 5 5 5 4 4 5 5 6 5 5 5 4 3 2 1 1 2 3 3 4 4 4 4 4 4 3 3 2 3 3 3 3 2 1 1 2 3 3 4 4 3 3 2 2 2 3 4 4 4 3 3 3 3 2 1 1 1 2 2 2 3 3 3 4 4 4
7 7 7 6 6 6 6 6 6 6 6 6 5 5 5 6 6 6 5 5 5 5 5 4 4 4 5 5 5 6 6 6 5 4 3 2 1 2 2 3 3 4 4 4 4 4 3 3 3 3 3 3 3 3 2 2 2 3 3 4 3 3 2 2 2 3 3 4 4 4 4 4 3 3 2 1 1 1 2 2 3 3 4 4 4 4
7 7 7 7 6 6 6 6 6 6 6 6 6 5 5 6 7 7 5 5 5 5 5 5 5 5 5 5 5 5 6 5 5 4 4 3 2 2 2 2 2 3 3 3 3 3 3 2 2 2 2 3 3 3 3 3 3 3 3 3 3 3 3 2 2 3 3 4 4 4 4 4 3 3 3 2 1 2 2 2 3 3 4 4 4 4
7 7 7 7 7 7 7 7 7 7 7 7 6 6 5 5 5 5 5 5 5 5 5 5 5 6 5 6 6 6 6 5 5 5 4 4 3 3 3 2 2 2 3 2 2 3 3 3 2 1 2 3 3 4 3 3 3 2 2 2 3 3 3 2 2 3 4 4 4 4 3 3 3 3 3 3 2 2 2 2 3 3 3 3 3 4
7 7 7 7 7 7 6 7 7 7 7 7 7 7 6 5 5 4 4 5 5 5 4 5 5 5 6 6 6 6 6 6 6 5 5 4 4 4 4 4 3 3 3 2 2 2 2 2 2 2 3 5 6 6 4 4 4 3 3 2 2 2 3 2 2 3 4 4 4 4 3 3 2 3 3 3 2 1 2 2 3 3 3 2 3 4
Wind_Direction
210 222 250 163 159 170 195 182 178 179 185 173 162 141 95 71 43 18 11 8 2 355 348 196 177 170 164 160 158 155 152 150 148 147 146 145 143 141 139 137 135 134 135 140 148 160 172 181 187 188 187 185 180 174 171 167 165 166 173 167 163 158 148 138 132 126 120 114 109 105 101 99 96 94 93 91 87 81 75 72 71 69 67 59 43 12
213 219 232 190 183 189 210 196 188 183 182 179 175 163 137 110 68 27 13 8 0 353 348 334 170 166 164 162 158 156 153 151 149 147 146 145 143 141 138 136 134 135 137 142 150 159 167 174 173 169 165 160 154 147 143 135 129 124 119 114 112 112 113 113 113 112 109 105 102 99 96 94 93 92 91 90 85 78 71 67 64 63 62 54 35 359
187 203 216 204 198 200 210 204 195 184 173 171 169 164 152 138 110 53 17 6 358 351 345 340 183 166 164 163 160 158 156 152 149 147 146 144 142 140 137 136 135 137 140 145 150 153 151 146 139 132 124 121 117 113 109 106 102 98 95 92 91 91 92 93 93 94 92 91 89 88 87 85 83 81 79 76 72 67 64 61 58 55 52 44 24 350
184 198 203 202 205 208 206 195 181 164 148 146 149 154 157 144 120 80 30 13 4 355 345 338 330 167 163 163 161 159 157 153 150 147 145 144 142 140 138 138 139 142 146 151 152 150 145 138 130 123 117 114 110 106 104 102 99 96 94 91 90 89 87 86 85 83 81 81 80 79 78 76 72 68 64 60 57 56 56 55 52 47 39 27 6 338
190 193 190 189 200 215 222 164 137 124 114 117 122 129 131 116 103 83 43 30 18 6 349 339 340 45 156 158 159 158 156 153 149 147 145 144 143 142 141 143 145 149 154 157 157 154 148 141 134 128 123 118 114 111 108 106 104 101 99 96 94 92 90 88 85 82 80 79 77 75 73 70 65 60 52 46 42 40 42 42 40 33 20 3 343 324
192 181 169 167 170 178 346 42 110 117 108 98 91 85 78 78 78 75 59 46 30 11 348 339 341 356 127 149 154 155 153 151 149 147 146 145 145 145 146 148 152 156 161 163 162 159 153 147 141 136 130 125 121 118 115 112 110 107 104 101 99 96 94 92 89 85 83 80 78 75 72 68 63 56 46 35 27 20 16 13 5 352 335 323 313 305
188 154 139 131 124 100 17 357 128 138 128 112 89 68 58 58 57 57 54 53 40 15 352 342 347 1 52 129 146 150 150 149 148 147 147 148 149 150 151 154 158 162 166 167 166 162 158 153 148 143 138 133 129 126 123 119 115 112 108 105 102 100 98 96 93 90 87 84 82 78 75 71 66 58 46 31 16 3 352 338 324 309 298 292 289 287
208 155 135 132 126 116 58 307 240 180 154 144 134 117 86 62 49 41 36 35 30 18 2 359 4 14 27 75 127 141 144 145 147 148 149 150 152 154 157 160 163 167 169 169 167 164 160 157 153 149 145 142 138 134 129 124 119 114 110 107 105 103 101 99 96 94 91 89 87 85 82 79 74 67 55 36 14 355 339 323 309 298 288 282 279 275
223 196 180 168 157 150 163 228 249 242 186 160 156 154 147 127 90 51 36 23 12 4 2 24 37 33 22 38 86 122 133 137 141 145 148 150 154 157 160 164 167 169 170 169 167 165 162 159 157 154 152 149 144 139 132 126 120 116 112 109 107 105 103 101 100 98 96 95 95 94 92 92 90 87 79 59 28 359 338 323 311 301 292 285 278 272
226 207 193 187 174 161 158 180 218 259 269 157 155 156 154 152 148 139 121 40 336 335 343 8 115 111 56 39 70 110 125 132 139 144 147 151 155 159 161 165 168 169 169 168 166 164 162 161 160 158 157 153 147 141 133 127 122 118 115 112 109 108 106 106 105 105 105 107 108 109 110 112 114 115 117 111 87 24 347 331 321 313 304 294 284 274
226 206 187 185 178 153 129 144 164 180 99 107 110 125 156 165 164 167 174 186 201 233 299 299 202 152 142 120 107 110 117 123 132 142 148 154 157 160 162 164 166 166 166 165 164 163 162 163 162 162 160 155 148 141 134 129 126 123 119 117 115 113 111 111 113 116 121 128 133 137 139 141 144 146 148 148 145 138 81 347 335 327 317 304 291 280
218 198 180 171 158 134 109 107 111 115 117 125 142 180 211 197 185 180 182 186 186 186 192 242 299 294 170 150 133 119 113 114 119 128 141 153 157 159 159 162 163 164 163 161 161 162 163 165 166 165 162 156 149 142 136 133 131 129 127 125 123 122 120 122 127 137 150 159 164 166 166 167 169 172 174 171 168 164 154 133 5 332 318 305 295 284
204 180 169 163 160 156 144 135 131 143 168 181 191 197 201 195 191 191 191 186 182 176 169 158 327 325 321 334 118 126 126 125 123 123 129 144 149 150 147 150 152 153 153 151 155 160 165 168 169 167 164 157 151 146 142 141 140 139 138 136 135 134 134 140 152 167 180 184 185 183 181 181 183 186 191 188 181 175 164 159 159 234 294 292 288 284
195 175 171 175 177 176 170 167 171 181 195 201 203 200 189 172 172 182 188 181 172 160 145 139 141 305 320 324 333 121 136 134 129 127 133 142 146 144 139 140 139 135 128 129 138 152 162 165 167 168 165 158 152 149 149 149 149 150 151 150 150 151 154 165 180 192 198 198 195 191 189 189 191 197 201 197 192 183 173 167 168 182 228 265 279 285
194 184 188 193 193 189 185 185 190 196 202 203 198 184 152 152 165 177 183 175 163 149 138 142 155 239 291 293 299 276 147 141 139 140 144 146 140 131 130 133 133 131 126 132 140 149 153 147 150 159 162 157 153 153 156 158 161 164 164 165 166 170 175 187 197 204 206 203 199 194 190 191 194 199 204 201 194 186 177 172 170 175 195 241 279 300
197 192 199 202 201 198 191 191 196 202 203 196 185 173 164 170 177 182 185 174 162 153 156 160 173 216 259 263 262 236 178 155 152 151 150 155 152 120 113 128 135 139 139 145 152 155 151 140 141 148 152 157 159 162 165 168 172 175 176 178 180 184 189 199 205 208 208 204 198 194 191 192 195 200 202 198 192 183 177 172 169 169 174 192 292 337
202 201 204 205 205 203 195 193 197 199 193 184 182 183 183 182 182 182 182 169 162 164 176 175 179 190 213 230 236 225 199 170 159 155 150 161 175 166 102 129 144 155 158 159 162 163 159 153 151 155 162 168 170 171 173 177 181 184 185 187 190 194 199 205 209 210 207 202 197 192 190 192 194 197 199 193 186 180 175 171 167 165 163 156 126 52
206 204 205 206 206 202 189 189 193 193 184 182 184 188 191 185 180 177 177 171 172 178 185 188 191 191 185 194 199 198 189 176 163 156 153 165 180 187 95 119 140 157 165 168 170 168 163 161 162 167 172 177 178 178 180 184 187 189 192 193 196 200 204 208 210 209 205 199 195 191 190 191 192 194 193 187 182 177 173 170 167 164 161 152 136 104
209 205 204 208 205 196 184 187 189 189 187 185 183 183 187 185 181 180 183 182 184 186 188 194 200 203 197 191 178 170 174 176 166 158 159 167 180 187 118 117 133 151 164 170 171 168 160 158 166 171 175 179 181 182 184 188 192 195 197 199 201 204 207 209 209 206 202 197 193 190 190 190 191 191 189 184 180 177 175 172 169 166 161 151 137 118
215 210 208 207 201 195 193 194 192 189 187 183 179 178 182 183 184 186 190 190 192 193 192 197 203 207 206 184 158 154 167 170 166 160 160 163 174 185 164 140 142 151 164 173 176 166 147 144 158 171 177 180 182 184 187 192 196 200 203 204 205 207 207 208 207 204 199 195 192 190 190 190 189 188 186 184 182 180 179 176 173 168 161 148 137 125
219 217 211 203 199 200 202 198 193 188 182 174 171 174 181 182 186 190 192 191 192 194 195 201 204 203 193 167 158 161 167 168 169 166 157 155 170 190 185 159 153 155 162 174 180 157 132 129 136 162 175 180 183 186 190 195 200 204 206 207 207 207 207 206 204 201 197 194 192 191 190 189 188 186 185 185 185 185 184 181 176 170 159 150 144 138
221 219 211 203 204 206 203 191 187 182 173 168 171 177 183 184 188 191 191 188 188 192 197 202 206 208 181 150 158 164 169 173 173 168 152 158 178 199 198 168 158 158 165 172 182 151 113 119 129 158 175 182 186 190 194 198 202 205 207 207 206 206 205 205 203 200 196 194 192 190 190 189 187 186 184 185 187 187 187 184 179 172 163 158 157 157
221 220 209 205 207 207 197 183 179 177 172 174 179 184 184 184 186 188 185 183 182 177 158 130 91 41 22 66 135 158 171 177 174 166 156 170 183 193 193 166 161 166 176 171 168 150 114 117 133 170 184 190 192 195 197 200 202 204 205 205 204 204 204 202 201 198 196 194 192 190 190 189 187 185 184 185 187 188 188 185 181 176 170 168 168 171
221 219 213 207 205 199 187 176 173 174 175 179 182 182 175 174 172 170 165 159 145 127 108 97 80 58 40 71 116 152 177 178 171 167 169 175 173 170 172 163 167 174 179 167 153 142 127 127 141 190 209 200 199 198 198 200 201 202 202 202 202 202 202 201 200 198 196 194 191 190 189 189 187 186 185 185 187 188 188 186 184 180 177 176 178 180
214 210 196 188 183 181 176 171 170 170 171 171 167 157 143 137 128 119 112 112 113 115 119 117 114 110 109 137 158 177 198 187 164 167 174 165 151 145 167 165 169 171 172 158 138 132 127 139 154 219 262 212 203 199 198 199 199 200 200 201 201 201 201 201 200 198 197 194 192 190 189 189 188 187 186 186 187 188 188 188 187 187 187 187 189 193
197 184 165 162 164 168 169 168 167 167 167 163 157 149 138 131 124 119 119 126 133 139 142 148 156 164 163 170 182 192 201 194 161 155 161 142 137 144 176 164 157 152 146 132 127 133 136 152 169 195 218 221 207 201 198 198 198 198 199 200 201 201 202 202 201 200 198 195 192 191 190 190 190 189 188 188 188 188 189 190 190 191 192 195 200 207
187 176 167 164 163 164 166 166 167 167 167 165 161 156 148 143 142 146 157 160 160 160 164 173 176 173 167 182 191 194 190 188 179 153 135 126 133 148 179 159 138 128 124 122 137 152 154 161 171 184 194 220 216 206 198 197 196 197 198 200 202 203 204 204 203 201 198 195 193 191 191 191 191 191 191 191 190 190 190 190 191 191 191 191 196 212
184 178 174 171 169 169 169 169 169 169 170 168 165 162 158 157 161 169 177 171 168 170 179 183 181 175 173 185 188 184 182 190 187 168 135 122 132 152 173 152 129 119 118 115 113 132 152 164 173 181 192 203 210 208 202 197 196 196 199 202 204 206 207 207 205 203 199 196 193 191 190 191 192 193 194 194 193 193 192 192 191 190 187 181 180 199
184 183 181 179 177 175 175 173 173 173 174 172 170 169 167 169 175 179 178 169 169 176 188 190 186 175 165 163 155 159 187 198 189 167 136 123 132 152 161 144 130 123 120 110 80 24 341 261 200 187 187 188 190 198 207 199 197 197 203 206 209 210 211 210 208 204 199 194 191 189 188 189 191 193 195 196 196 195 194 193 191 187 179 169 167 181
185 185 186 184 182 180 178 177 177 177 178 176 176 175 176 179 182 179 168 166 172 182 190 191 185 169 146 133 131 155 206 205 189 164 141 136 141 151 151 147 146 141 132 122 110 60 300 282 245 197 177 177 178 184 200 198 197 200 206 211 214 215 214 212 209 203 196 191 187 185 184 184 186 189 192 194 196 196 196 194 190 181 162 157 164 184
184 183 185 185 183 180 178 177 178 179 180 179 179 179 180 182 181 174 164 171 178 185 189 188 179 165 152 147 158 180 205 198 183 168 154 149 149 153 155 157 162 163 150 138 139 154 218 249 242 205 172 170 173 180 186 189 190 195 203 212 217 218 216 211 206 198 191 185 182 180 179 179 180 182 187 191 195 198 198 197 191 180 155 156 171 194
182 181 181 179 176 171 170 171 173 176 178 179 178 178 176 175 172 168 168 177 182 186 187 182 174 167 167 171 179 186 188 179 174 171 163 151 144 148 158 159 165 171 167 144 143 149 160 187 203 198 172 170 173 180 186 188 190 192 194 198 209 215 212 204 197 189 181 179 177 176 175 176 177 180 184 189 196 202 205 204 198 187 163 160 177 202
178 178 176 173 169 165 165 164 165 166 168 165 162 158 154 152 151 155 167 177 183 185 183 175 169 167 173 176 177 175 170 169 171 171 166 150 138 145 159 158 162 166 163 134 127 134 140 153 160 167 174 176 175 179 187 192 192 189 182 180 186 196 198 186 175 166 163 165 168 172 175 176 180 185 190 196 204 210 214 214 210 202 185 173 182 206
174 173 171 169 167 165 163 160 158 156 152 144 137 132 126 124 124 128 142 162 173 178 177 172 169 169 170 166 157 148 179 181 176 171 165 150 141 146 156 162 163 163 157 146 125 113 116 131 138 143 157 169 171 176 187 194 191 180 157 155 156 161 165 150 141 138 142 143 151 164 174 177 187 195 201 207 214 218 222 222 219 215 209 198 194 199
172 172 171 170 168 166 164 161 156 150 143 137 133 131 127 122 115 109 108 118 129 141 150 157 164 168 169 164 160 162 183 185 178 173 165 154 146 145 153 167 168 165 162 160 150 134 125 133 139 142 141 149 165 192 203 197 179 147 111 120 131 139 143 134 132 133 134 134 139 151 164 171 188 202 211 216 220 223 226 226 225 223 220 214 210 204
173 174 175 173 171 169 168 165 159 152 145 140 137 134 128 119 110 101 94 93 92 90 86 86 110 143 160 160 161 164 173 173 174 172 168 159 149 145 152 169 171 168 165 164 159 148 138 139 142 143 140 144 158 188 212 196 151 112 93 94 106 122 138 138 137 136 136 143 151 160 165 167 179 195 211 220 223 225 227 228 229 229 227 223 220 216
176 178 179 176 174 171 170 167 163 157 151 146 141 133 124 115 109 102 94 90 89 88 85 76 71 73 87 123 141 150 156 160 165 167 165 156 148 144 149 163 170 170 168 166 162 155 142 140 142 145 147 152 160 170 180 173 159 148 147 125 117 122 135 138 136 135 136 149 158 165 168 170 177 190 206 219 223 227 230 231 234 235 234 232 229 226
180 181 181 180 177 174 170 169 167 163 157 150 141 132 121 114 109 105 98 91 88 88 87 79 71 65 63 78 94 112 128 140 149 153 151 147 143 139 140 150 164 173 173 167 162 157 150 148 150 156 165 166 162 158 158 163 170 177 185 169 145 133 142 143 138 137 137 147 155 160 161 161 164 174 192 206 207 214 239 253 256 253 245 244 240 236
184 184 183 182 180 177 173 172 169 163 154 144 135 126 118 110 105 99 95 91 87 85 85 82 78 70 64 72 81 92 105 120 128 131 130 132 134 137 138 147 159 168 169 161 157 156 155 155 157 162 165 160 150 143 145 158 168 174 175 165 165 178 186 163 151 145 142 145 150 155 155 144 144 149 159 145 129 128 164 250 267 263 251 261 255 249
187 185 184 184 182 180 176 171 162 152 140 131 125 120 117 111 104 96 91 90 87 85 83 82 79 74 66 66 69 74 81 92 98 100 101 106 120 134 141 148 154 158 158 154 153 153 153 151 151 152 153 149 147 146 149 159 167 168 164 164 184 206 204 182 168 159 149 148 154 160 165 151 146 150 161 155 157 163 175 188 213 228 222 212 227 245
187 186 185 183 180 176 168 156 145 138 133 130 128 126 125 121 117 111 104 97 94 92 92 87 82 75 65 58 53 50 50 54 58 60 57 68 98 122 136 144 148 151 151 150 149 148 147 143 144 146 148 142 138 140 149 163 169 170 170 174 182 190 188 182 175 167 159 157 160 164 170 167 167 171 177 181 185 185 181 179 191 207 210 188 180 183
187 186 184 178 170 160 147 135 132 132 133 134 136 139 141 139 136 132 128 122 118 116 114 109 103 94 82 66 51 41 37 37 38 41 44 57 81 106 126 136 143 146 144 143 141 139 137 138 141 147 154 145 138 137 148 162 169 173 175 171 159 148 156 186 182 170 164 167 166 166 169 169 173 183 187 198 208 210 196 189 196 203 204 192 181 177
186 184 177 163 149 138 131 130 133 137 141 143 146 149 151 147 145 142 140 138 139 139 135 128 123 118 111 100 75 43 23 18 22 30 37 47 63 85 109 122 130 137 138 138 139 138 127 122 129 142 155 145 138 137 145 158 166 171 172 161 149 142 159 202 193 171 162 165 164 160 161 163 169 176 181 196 212 221 215 213 215 215 206 189 180 179
177 169 155 142 133 130 131 137 144 149 152 152 153 153 152 151 148 145 143 143 143 143 141 136 127 120 116 116 111 86 31 12 13 20 31 42 53 66 83 96 106 114 123 132 138 139 127 116 119 138 148 127 125 130 141 153 162 169 172 164 159 160 173 179 169 160 157 162 163 162 159 155 148 137 127 181 238 234 219 215 222 225 215 186 172 172
159 151 143 139 137 138 143 150 153 155 155 155 154 154 154 154 152 150 147 145 145 146 147 144 135 127 125 131 131 123 93 42 21 18 22 33 42 50 60 72 81 89 96 111 124 133 133 137 145 144 108 97 104 116 135 149 158 166 171 168 163 158 156 149 149 152 159 165 172 174 163 141 124 110 88 311 285 265 233 209 214 223 230 211 191 186
152 150 149 148 148 151 155 155 155 154 154 153 153 154 155 155 153 151 150 148 148 151 156 153 146 142 143 147 146 141 132 116 81 43 22 17 20 27 41 54 65 74 81 85 93 104 119 136 141 131 99 88 88 102 128 142 151 159 167 167 159 142 111 124 144 157 162 167 174 176 155 125 117 119 162 240 269 274 262 223 210 212 219 219 215 211
156 155 155 154 154 155 155 154 153 154 155 155 155 155 155 154 152 151 150 150 151 153 156 153 148 146 147 150 152 152 151 149 144 131 91 45 29 31 40 50 56 62 70 72 73 74 81 98 113 120 118 119 124 136 151 140 144 151 161 161 157 149 143 156 170 171 167 167 169 165 144 125 126 146 184 219 266 282 279 249 227 216 213 214 214 216
159 158 158 158 156 155 154 155 156 157 157 156 155 155 157 157 156 154 151 153 154 154 155 154 150 147 147 152 156 158 157 155 154 151 143 128 98 71 60 59 59 59 60 62 64 67 72 82 96 111 123 134 147 162 179 163 154 152 154 154 154 158 168 181 183 175 166 165 162 156 144 142 151 165 173 186 250 278 276 261 246 232 220 212 210 211
158 159 159 159 159 158 159 161 161 160 158 155 154 155 159 160 159 158 154 156 157 157 158 158 155 151 151 155 158 157 155 153 152 152 151 147 136 119 97 83 73 63 55 51 48 47 48 56 81 116 137 139 145 154 169 173 169 160 147 146 150 156 165 174 175 167 159 156 153 151 150 151 152 151 149 161 203 253 269 269 261 249 233 217 208 205
157 158 160 161 162 162 163 163 163 162 159 156 155 156 159 160 159 157 153 156 158 160 162 160 158 155 155 157 157 158 157 155 155 155 157 154 148 140 129 116 103 88 70 55 42 34 24 13 1 321 208 188 172 160 158 167 168 163 154 154 152 152 155 162 166 163 155 150 147 144 142 138 130 126 130 148 185 241 273 278 275 267 253 228 210 204
158 159 160 162 163 164 165 166 165 163 160 157 156 156 158 158 157 154 153 157 160 162 163 162 160 158 158 158 159 160 161 160 160 161 162 158 154 150 145 139 132 123 111 99 85 70 58 30 350 314 275 227 205 189 168 163 161 162 170 179 168 151 146 150 155 155 151 147 143 139 137 134 127 123 128 142 165 219 266 276 277 274 268 245 217 207